H1 CPF 2 NER 2020 12 31 9 366 01 glonass131 H2 1301901 9131 39155 2020 12 31 0 0 0 2021 1 3 23 45 0 900 1 1 0 0 0 1 H9 10 0 59214 0.00000 0 20566178.922 12688290.587 -8231100.705 10 0 59214 900.00000 0 21304535.543 13095184.764 -5159772.017 10 0 59214 1800.00000 0 21756745.276 13226214.852 -1988500.382 10 0 59214 2700.00000 0 21882484.850 13119809.830 1221271.040 10 0 59214 3600.00000 0 21651925.268 12822575.777 4407421.635 10 0 59214 4500.00000 0 21047098.586 12387115.664 7508344.444 10 0 59214 5400.00000 0 20062786.158 11869614.110 10464123.008 10 0 59214 6300.00000 0 18706892.011 11327288.577 13217672.433 10 0 59214 7200.00000 0 17000286.378 10815813.439 15715823.960 10 0 59214 8100.00000 0 14976125.963 10386824.069 17910333.770 10 0 59214 9000.00000 0 12678678.599 10085604.416 19758798.286 10 0 59214 9900.00000 0 10161700.079 9949053.775 21225459.864 10 0 59214 10800.00000 0 7486428.702 10004016.961 22281888.853 10 0 59214 11700.00000 0 4719278.486 10266047.280 22907529.956 10 0 59214 12600.00000 0 1929324.179 10738654.150 23090102.953 10 0 59214 13500.00000 0 -814320.389 11413067.655 22825850.163 10 0 59214 14400.00000 0 -3445124.486 12268531.369 22119625.305 10 0 59214 15300.00000 0 -5901656.563 13273113.268 20984820.896 10 0 59214 16200.00000 0 -8129891.454 14385003.283 19443133.904 10 0 59214 17100.00000 0 -10085213.801 15554245.773 17524172.079 10 0 59214 18000.00000 0 -11734034.481 16724836.792 15264906.272 10 0 59214 18900.00000 0 -13054952.258 17837100.163 12708977.004 10 0 59214 19800.00000 0 -14039411.191 18830243.963 9905866.554 10 0 59214 20700.00000 0 -14691824.935 19644990.335 6909950.951 10 0 59214 21600.00000 0 -15029161.474 20226167.482 3779449.103 10 0 59214 22500.00000 0 -15080004.560 20525153.238 575289.003 10 0 59214 23400.00000 0 -14883130.715 20502064.985 -2640086.592 10 0 59214 24300.00000 0 -14485661.742 20127600.839 -5803950.795 10 0 59214 25200.00000 0 -13940871.411 19384451.420 -8854534.070 10 0 59214 26100.00000 0 -13305740.351 18268219.774 -11732250.251 10 0 59214 27000.00000 0 -12638364.468 16787808.069 -14380881.064 10 0 59214 27900.00000 0 -11995328.852 14965252.783 -16748693.880 10 0 59214 28800.00000 0 -11429160.690 12835014.079 -18789468.826 10 0 59214 29700.00000 0 -10985971.247 10442748.737 -20463413.642 10 0 59214 30600.00000 0 -10703388.554 7843618.283 -21737947.385 10 0 59214 31500.00000 0 -10608869.541 5100204.072 -22588337.045 10 0 59214 32400.00000 0 -10718463.608 2280117.601 -22998174.771 10 0 59214 33300.00000 0 -11036079.770 -546592.901 -22959686.914 10 0 59214 34200.00000 0 -11553287.635 -3310130.261 -22473869.851 10 0 59214 35100.00000 0 -12249659.308 -5943617.830 -21550451.256 10 0 59214 36000.00000 0 -13093636.215 -8385639.354 -20207679.090 10 0 59214 36900.00000 0 -14043882.474 -10582543.928 -18471944.013 10 0 59214 37800.00000 0 -15051066.004 -12490421.396 -16377244.169 10 0 59214 38700.00000 0 -16059990.767 -14076667.862 -13964504.203 10 0 59214 39600.00000 0 -17011989.077 -15321078.561 -11280763.103 10 0 59214 40500.00000 0 -17847472.471 -16216425.483 -8378247.732 10 0 59214 41400.00000 0 -18508533.453 -16768498.855 -5313350.828 10 0 59214 42300.00000 0 -18941488.854 -16995613.842 -2145533.915 10 0 59214 43200.00000 0 -19099258.451 -16927606.110 1063823.428 10 0 59214 44100.00000 0 -18943479.855 -16604360.798 4252605.798 10 0 59214 45000.00000 0 -18446272.007 -16073938.417 7359153.198 10 0 59214 45900.00000 0 -17591574.459 -15390377.444 10323439.111 10 0 59214 46800.00000 0 -16376007.322 -14611266.222 13088213.796 10 0 59214 47700.00000 0 -14809216.566 -13795185.703 15600092.066 10 0 59214 48600.00000 0 -12913690.392 -12999129.430 17810566.215 10 0 59214 49500.00000 0 -10724053.835 -12276007.660 19676926.259 10 0 59214 50400.00000 0 -8285869.942 -11672338.734 21163071.319 10 0 59214 51300.00000 0 -5653995.586 -11226223.030 22240198.015 10 0 59214 52200.00000 0 -2890557.883 -10965683.219 22887353.717 10 0 59214 53100.00000 0 -62632.583 -10907439.717 23091844.615 10 0 59214 54000.00000 0 2760282.206 -11056172.640 22849490.855 10 0 59214 54900.00000 0 5508895.066 -11404301.919 22164723.310 10 0 59214 55800.00000 0 8116746.490 -11932296.207 21050518.965 10 0 59214 56700.00000 0 10522723.408 -12609499.627 19528174.526 10 0 59214 57600.00000 0 12673359.931 -13395444.002 17626920.527 10 0 59214 58500.00000 0 14524829.115 -14241593.847 15383381.072 10 0 59214 59400.00000 0 16044542.633 -15093452.955 12840887.375 10 0 59214 60300.00000 0 17212290.799 -15892945.593 10048656.149 10 0 59214 61200.00000 0 18020873.915 -16580972.888 7060847.139 10 0 59214 62100.00000 0 18476197.051 -17100036.629 3935516.869 10 0 59214 63000.00000 0 18596822.853 -17396818.827 733488.405 10 0 59214 63900.00000 0 18413000.046 -17424606.302 -2482840.538 10 0 59214 64800.00000 0 17965208.063 -17145455.392 -5650727.068 10 0 59214 65700.00000 0 17302279.264 -16532002.389 -8708324.703 10 0 59214 66600.00000 0 16479178.888 -15568840.211 -11595910.815 10 0 59214 67500.00000 0 15554538.040 -14253400.280 -14257073.871 10 0 59214 68400.00000 0 14588045.948 -12596299.948 -16639835.096 10 0 59214 69300.00000 0 13637813.996 -10621139.050 -18697680.629 10 0 59214 70200.00000 0 12757825.173 -8363753.029 -20390482.419 10 0 59214 71100.00000 0 11995578.698 -5870953.629 -21685288.790 10 0 59214 72000.00000 0 11390030.753 -3198810.337 -22556968.622 10 0 59214 72900.00000 0 10969919.108 -410545.269 -22988696.619 10 0 59214 73800.00000 0 10752542.377 2425869.477 -22972270.752 10 0 59214 74700.00000 0 10743044.727 5240310.523 -22508256.610 10 0 59214 75600.00000 0 10934234.910 7963188.799 -21605957.190 10 0 59214 76500.00000 0 11306945.404 10528109.683 -20283210.198 10 0 59214 77400.00000 0 11830914.437 12874396.913 -18566018.406 10 0 59214 78300.00000 0 12466151.518 14949376.023 -16488021.889 10 0 59214 79200.00000 0 13164726.838 16710323.605 -14089823.817 10 0 59214 80100.00000 0 13872907.359 18126003.201 -11418184.334 10 0 59214 81000.00000 0 14533548.202 19177726.347 -8525099.240 10 0 59214 81900.00000 0 15088637.747 19859897.410 -5466782.188 10 0 59214 82800.00000 0 15481888.921 20180022.415 -2302570.796 10 0 59214 83700.00000 0 15661267.788 20158184.444 906221.966 10 0 59214 84600.00000 0 15581353.646 19826010.191 4097488.957 10 0 59214 85500.00000 0 15205432.333 19225172.992 7209520.150 10 0 59215 0.00000 0 14507235.929 18405496.541 10182181.766 10 0 59215 900.00000 0 13472256.377 17422739.478 12958061.991 10 0 59215 1800.00000 0 12098580.036 16336153.526 15483561.571 10 0 59215 2700.00000 0 10397206.433 15205917.182 17709911.041 10 0 59215 3600.00000 0 8391839.739 14090550.682 19594095.853 10 0 59215 4500.00000 0 6118159.410 13044419.372 21099673.426 10 0 59215 5400.00000 0 3622599.316 12115428.086 22197467.847 10 0 59215 6300.00000 0 960683.751 11343001.487 22866129.995 10 0 59215 7200.00000 0 -1805013.168 10756433.727 23092552.903 10 0 59215 8100.00000 0 -4607203.013 10373675.785 22872134.539 10 0 59215 9000.00000 0 -7376419.643 10200611.261 22208882.430 10 0 59215 9900.00000 0 -10043654.390 10230851.682 21115357.018 10 0 59215 10800.00000 0 -12542982.882 10446061.241 19612453.215 10 0 59215 11700.00000 0 -14814076.155 10816799.166 17729022.293 10 0 59215 12600.00000 0 -16804492.473 11303846.443 15501339.135 10 0 59215 13500.00000 0 -18471654.616 11859963.177 12972422.792 10 0 59215 14400.00000 0 -19784429.517 12432004.334 10191221.312 10 0 59215 15300.00000 0 -20724242.934 12963305.868 7211674.910 10 0 59215 16200.00000 0 -21285680.919 13396240.911 4091674.436 10 0 59215 17100.00000 0 -21476551.163 13674837.548 891934.792 10 0 59215 18000.00000 0 -21317400.049 13747346.126 -2325194.491 10 0 59215 18900.00000 0 -20840504.746 13568645.353 -5496957.507 10 0 59215 19800.00000 0 -20088382.310 13102382.654 -8561433.643 10 0 59215 20700.00000 0 -19111878.998 12322755.248 -11458766.409 10 0 59215 21600.00000 0 -17967921.436 11215853.610 -14132353.337 10 0 59215 22500.00000 0 -16717026.176 9780507.779 -16529971.521 10 0 59215 23400.00000 0 -15420674.817 8028598.605 -18604814.764 10 0 59215 24300.00000 0 -14138667.624 5984819.198 -20316420.475 10 0 59215 25200.00000 0 -12926569.332 3685895.716 -21631467.083 10 0 59215 26100.00000 0 -11833356.483 1179300.089 -22524425.765 10 0 59215 27000.00000 0 -10899366.491 -1478490.960 -22978053.791 10 0 59215 27900.00000 0 -10154635.106 -4224117.001 -22983720.369 10 0 59215 28800.00000 0 -9617691.828 -6989745.319 -22541559.554 10 0 59215 29700.00000 0 -9294862.710 -9705671.146 -21660448.575 10 0 59215 30600.00000 0 -9180108.035 -12302997.576 -20357813.467 10 0 59215 31500.00000 0 -9255399.395 -14716283.137 -18659267.422 10 0 59215 32400.00000 0 -9491617.730 -16886047.046 -16598090.499 10 0 59215 33300.00000 0 -9849931.967 -18761028.720 -14214562.264 10 0 59215 34200.00000 0 -10283597.842 -20300108.812 -11555161.743 10 0 59215 35100.00000 0 -10740099.142 -21473813.791 -8671651.315 10 0 59215 36000.00000 0 -11163539.689 -22265343.786 -5620063.168 10 0 59215 36900.00000 0 -11497184.400 -22671083.439 -2459608.604 10 0 59215 37800.00000 0 -11686042.042 -22700577.225 748468.410 10 0 59215 38700.00000 0 -11679381.143 -22375972.835 3942071.395 10 0 59215 39600.00000 0 -11433073.816 -21730958.126 7059442.698 10 0 59215 40500.00000 0 -10911669.796 -20809237.755 10040343.805 10 0 59215 41400.00000 0 -10090114.530 -19662614.283 12827202.977 10 0 59215 42300.00000 0 -8955040.090 -18348754.296 15366209.305 10 0 59215 43200.00000 0 -7505575.294 -16928732.582 17608333.760 10 0 59215 44100.00000 0 -5753641.110 -15464456.001 19510259.208 10 0 59215 45000.00000 0 -3723718.436 -14016073.229 21035203.065 10 0 59215 45900.00000 0 -1452096.531 -12639476.835 22153618.272 10 0 59215 46800.00000 0 1014368.576 -11384000.164 22843760.223 10 0 59215 47700.00000 0 3619936.626 -10290403.697 23092109.424 10 0 59215 48600.00000 0 6302039.669 -9389233.713 22893641.895 10 0 59215 49500.00000 0 8993630.416 -8699621.257 22251941.672 10 0 59215 50400.00000 0 11625727.829 -8228571.670 21179152.137 10 0 59215 51300.00000 0 14130057.017 -7970775.104 19695765.536 10 0 59215 52200.00000 0 16441675.821 -7908947.227 17830252.665 10 0 59215 53100.00000 0 18501480.113 -8014687.515 15618537.617 10 0 59215 54000.00000 0 20258483.965 -8249820.857 13103325.365 10 0 59215 54900.00000 0 21671779.201 -8568167.711 10333293.006 10 0 59215 55800.00000 0 22712091.298 -8917669.521 7362158.590 10 0 59215 56700.00000 0 23362864.860 -9242780.323 4247644.331 10 0 59215 57600.00000 0 23620831.280 -9487023.372 1050353.740 10 0 59215 58500.00000 0 23496032.784 -9595603.669 -2167415.227 10 0 59215 59400.00000 0 23011300.336 -9517964.022 -5342897.081 10 0 59215 60300.00000 0 22201206.328 -9210173.961 -8414100.420 10 0 59215 61200.00000 0 21110535.864 -8637047.496 -11321038.036 10 0 59215 62100.00000 0 19792341.552 -7773897.030 -14006919.373 10 0 59215 63000.00000 0 18305664.905 -6607846.298 -16419279.889 10 0 59215 63900.00000 0 16713022.139 -5138644.351 -18511023.162 10 0 59215 64800.00000 0 15077762.311 -3378944.205 -20241353.774 10 0 59215 65700.00000 0 13461411.057 -1354033.107 -21576581.576 10 0 59215 66600.00000 0 11921113.595 898974.828 -22490780.974 10 0 59215 67500.00000 0 10507285.789 3332449.688 -22966292.346 10 0 59215 68400.00000 0 9261572.634 5890005.071 -22994056.285 10 0 59215 69300.00000 0 8215199.773 8508631.084 -22573775.092 10 0 59215 70200.00000 0 7387786.251 11121110.915 -21713899.638 10 0 59215 71100.00000 0 6786666.629 13658619.265 -20431443.355 10 0 59215 72000.00000 0 6406748.570 16053393.526 -18751628.586 10 0 59215 72900.00000 0 6230909.162 18241366.274 -16707373.781 10 0 59215 73800.00000 0 6230910.339 20164649.692 -14338632.999 10 0 59215 74700.00000 0 6368792.123 21773769.265 -11691601.942 10 0 59215 75600.00000 0 6598682.455 23029555.162 -8817807.071 10 0 59215 76500.00000 0 6868945.326 23904614.361 -5773096.336 10 0 59215 77400.00000 0 7124575.245 24384324.376 -2616551.753 10 0 59215 78300.00000 0 7309736.250 24467309.569 590654.858 10 0 59215 79200.00000 0 7370338.291 24165382.586 3786440.881 10 0 59215 80100.00000 0 7256542.731 23502955.543 6909004.218 10 0 59215 81000.00000 0 6925092.230 22515947.357 9898004.635 10 0 59215 81900.00000 0 6341367.898 21250234.060 12695713.466 10 0 59215 82800.00000 0 5481088.239 19759707.371 15248110.754 10 0 59215 83700.00000 0 4331579.305 18104022.467 17505910.276 10 0 59215 84600.00000 0 2892563.108 16346128.064 19425494.390 10 0 59215 85500.00000 0 1176431.060 14549680.556 20969742.283 10 0 59216 0.00000 0 -792009.896 12776448.212 22108737.154 10 0 59216 900.00000 0 -2976309.993 11083811.816 22820340.007 10 0 59216 1800.00000 0 -5329637.169 9522463.569 23090619.459 10 0 59216 2700.00000 0 -7796477.440 8134399.617 22914129.782 10 0 59216 3600.00000 0 -10314706.145 6951287.339 22294031.231 10 0 59216 4500.00000 0 -12817947.865 5993276.135 21242049.315 10 0 59216 5400.00000 0 -15238129.604 5268300.924 19778272.256 10 0 59216 6300.00000 0 -17508123.595 4771908.332 17930788.483 10 0 59216 7200.00000 0 -19564371.346 4487614.065 15735168.901 10 0 59216 8100.00000 0 -21349380.482 4387777.966 13233801.579 10 0 59216 9000.00000 0 -22813990.147 4434961.508 10475089.507 10 0 59216 9900.00000 0 -23919309.319 4583711.907 7512525.183 10 0 59216 10800.00000 0 -24638245.359 4782698.437 4403658.690 10 0 59216 11700.00000 0 -24956556.633 4977110.908 1208978.650 10 0 59216 12600.00000 0 -24873382.820 5111218.230 -2009271.982 10 0 59216 13500.00000 0 -24401228.575 5130977.393 -5188321.429 10 0 59216 14400.00000 0 -23565399.619 4986580.173 -8266110.619 10 0 59216 15300.00000 0 -22402914.048 4634827.077 -11182524.517 10 0 59216 16200.00000 0 -20960934.522 4041224.994 -13880587.107 10 0 59216 17100.00000 0 -19294787.926 3181716.756 -16307594.510 10 0 59216 18000.00000 0 -17465657.152 2043966.786 -18416161.990 10 0 59216 18900.00000 0 -15538043.851 628146.196 -20165162.752 10 0 59216 19800.00000 0 -13577110.758 -1052817.438 -21520539.027 10 0 59216 20700.00000 0 -11646017.161 -2973537.064 -22455968.872 10 0 59216 21600.00000 0 -9803360.862 -5096997.750 -22953375.668 10 0 59216 22500.00000 0 -8100834.850 -7375887.719 -23003270.809 10 0 59216 23400.00000 0 -6581197.159 -9754372.212 -22604923.800 10 0 59216 24300.00000 0 -5276638.278 -12170235.031 -21766357.728 10 0 59216 25200.00000 0 -4207613.091 -14557297.197 -20504171.670 10 0 59216 26100.00000 0 -3382184.070 -16848010.780 -18843195.107 10 0 59216 27000.00000 0 -2795900.540 -18976119.102 -16815982.673 10 0 59216 27900.00000 0 -2432215.949 -20879272.226 -14462160.572 10 0 59216 28800.00000 0 -2263422.480 -22501488.967 -11827638.762 10 0 59216 29700.00000 0 -2252060.713 -23795363.678 -8963705.346 10 0 59216 30600.00000 0 -2352742.361 -24723927.180 -5926021.615 10 0 59216 31500.00000 0 -2514307.327 -25262085.941 -2773537.921 10 0 59216 32400.00000 0 -2682222.735 -25397581.539 432648.365 10 0 59216 33300.00000 0 -2801122.132 -25131432.505 3630470.749 10 0 59216 34200.00000 0 -2817377.772 -24477842.125 6758084.890 10 0 59216 35100.00000 0 -2681598.061 -23463577.830 9755050.991 10 0 59216 36000.00000 0 -2350945.836 -22126849.356 12563485.571 10 0 59216 36900.00000 0 -1791180.960 -20515733.183 15129161.643 10 0 59216 37800.00000 0 -978342.324 -18686209.028 17402537.691 10 0 59216 38700.00000 0 100000.697 -16699889.538 19339697.298 10 0 59216 39600.00000 0 1443979.631 -14621536.567 20903182.920 10 0 59216 40500.00000 0 3041173.772 -12516465.692 22062709.277 10 0 59216 41400.00000 0 4866884.383 -10447944.914 22795743.847 10 0 59216 42300.00000 0 6884926.650 -8474693.741 23087943.985 10 0 59216 43200.00000 0 9048908.968 -6648584.700 22933442.510 10 0 59216 44100.00000 0 11303949.276 -5012641.337 22334975.860 10 0 59216 45000.00000 0 13588760.115 -3599415.077 21303851.331 10 0 59216 45900.00000 0 15838018.736 -2429808.126 19859752.481 10 0 59216 46800.00000 0 17984926.271 -1512391.752 18030384.442 10 0 59216 47700.00000 0 19963851.398 -843249.249 15850963.702 10 0 59216 48600.00000 0 21712949.458 -406351.320 13363559.889 10 0 59216 49500.00000 0 23176648.037 -174449.466 10616300.015 10 0 59216 50400.00000 0 24307894.377 -110451.172 7662448.822 10 0 59216 51300.00000 0 25070069.094 -169219.886 4559381.724 10 0 59216 52200.00000 0 25438483.921 -299724.273 1367469.613 10 0 59216 53100.00000 0 25401398.162 -447445.668 -1851102.621 10 0 59216 54000.00000 0 24960508.745 -556940.789 -5033560.113 10 0 59216 54900.00000 0 24130891.124 -574449.428 -8117779.335 10 0 59216 55800.00000 0 22940391.917 -450434.281 -11043520.532 10 0 59216 56700.00000 0 21428498.008 -141942.521 -13753625.135 10 0 59216 57600.00000 0 19644729.600 385313.832 -16195152.544 10 0 59216 58500.00000 0 17646625.505 1155249.594 -18320432.010 10 0 59216 59400.00000 0 15497406.701 2180144.823 -20088007.331 10 0 59216 60300.00000 0 13263417.886 3459885.167 -21463454.750 10 0 59216 61200.00000 0 11011456.279 4981737.405 -22420057.299 10 0 59216 62100.00000 0 8806101.234 6720670.195 -22939322.358 10 0 59216 63000.00000 0 6707157.668 8640206.500 -23011332.786 10 0 59216 63900.00000 0 4767320.915 10693771.265 -22634925.608 10 0 59216 64800.00000 0 3030160.385 12826476.873 -21817696.075 10 0 59216 65700.00000 0 1528505.261 14977270.552 -20575828.468 10 0 59216 66600.00000 0 283297.900 17081352.698 -18933758.570 10 0 59216 67500.00000 0 -697039.693 19072764.173 -16923675.974 10 0 59216 68400.00000 0 -1416702.840 20887033.923 -14584877.418 10 0 59216 69300.00000 0 -1892063.870 22463776.201 -11962985.141 10 0 59216 70200.00000 0 -2150716.277 23749129.322 -9109046.568 10 0 59216 71100.00000 0 -2230046.615 24697935.046 -6078533.719 10 0 59216 72000.00000 0 -2175396.752 25275568.834 -2930262.407 10 0 59216 72900.00000 0 -2037895.818 25459346.220 274747.514 10 0 59216 73800.00000 0 -1872054.476 25239448.411 3474448.851 10 0 59216 74700.00000 0 -1733223.356 24619330.255 6606958.237 10 0 59216 75600.00000 0 -1675022.691 23615595.224 9611739.481 10 0 59216 76500.00000 0 -1746850.748 22257343.887 12430757.340 10 0 59216 77400.00000 0 -1991574.968 20585023.842 15009580.680 10 0 59216 78300.00000 0 -2443501.853 18648829.194 17298415.360 10 0 59216 79200.00000 0 -3126709.919 16506715.687 19253048.605 10 0 59216 80100.00000 0 -4053815.105 14222113.017 20835688.280 10 0 59216 81000.00000 0 -5225220.284 11861427.743 22015682.452 10 0 59216 81900.00000 0 -6628881.047 9491438.473 22770106.604 10 0 59216 82800.00000 0 -8240598.831 7176689.349 23084207.941 10 0 59216 83700.00000 0 -10024831.325 4976987.869 22951698.513 10 0 59216 84600.00000 0 -11935988.986 2945109.000 22374891.157 10 0 59216 85500.00000 0 -13920166.595 1124799.634 21364674.641 10 0 59217 0.00000 0 -15917240.716 -450834.595 19940327.040 10 0 59217 900.00000 0 -17863248.627 -1760492.984 18129168.670 10 0 59217 1800.00000 0 -19692951.606 -2795345.592 15966059.674 10 0 59217 2700.00000 0 -21342477.198 -3559171.313 13492748.739 10 0 59217 3600.00000 0 -22751931.046 -4067962.780 10757083.986 10 0 59217 4500.00000 0 -23867868.283 -4349012.169 7812099.136 10 0 59217 5400.00000 0 -24645520.021 -4439515.898 4714991.445 10 0 59217 6300.00000 0 -25050679.521 -4384756.192 1526010.447 10 0 59217 7200.00000 0 -25061166.327 -4235936.207 -1692720.709 10 0 59217 8100.00000 0 -24667804.177 -4047760.927 -4878427.702 10 0 59217 9000.00000 0 -23874868.960 -3875867.599 -7968926.090 10 0 59217 9900.00000 0 -22699985.698 -3774216.566 -10903854.785 10 0 59217 10800.00000 0 -21173477.388 -3792555.564 -13625875.814 10 0 59217 11700.00000 0 -19337192.270 -3974067.688 -16081814.728 10 0 59217 12600.00000 0 -17242858.955 -4353305.394 -18223717.231 10 0 59217 13500.00000 0 -14950039.224 -4954500.456 -20009799.716 10 0 59217 14400.00000 0 -12523765.729 -5790323.414 -21405273.880 10 0 59217 15300.00000 0 -10031965.252 -6861146.279 -22383028.541 10 0 59217 16200.00000 0 -7542777.045 -8154840.372 -22924155.273 10 0 59217 17100.00000 0 -5121879.726 -9647117.900 -23018307.967 10 0 59217 18000.00000 0 -2829939.390 -11302402.393 -22663890.179 10 0 59217 18900.00000 0 -720285.633 -13075190.480 -21868067.845 10 0 59217 19800.00000 0 1163088.148 -14911846.719 -20646608.580 10 0 59217 20700.00000 0 2787118.080 -16752754.870 -19023552.283 10 0 59217 21600.00000 0 4130792.478 -18534734.358 -17030721.084 10 0 59217 22500.00000 0 5185759.790 -20193619.847 -14707079.670 10 0 59217 23400.00000 0 5956399.570 -21666895.425 -12097959.864 10 0 59217 24300.00000 0 6459356.987 -22896273.108 -9254165.664 10 0 59217 25200.00000 0 6722563.716 -23830108.279 -6230977.053 10 0 59217 26100.00000 0 6783789.311 -24425551.846 -3087072.572 10 0 59217 27000.00000 0 6688786.442 -24650350.404 116608.105 10 0 59217 27900.00000 0 6489109.843 -24484220.639 3318039.660 10 0 59217 28800.00000 0 6239701.815 -23919742.074 6455302.152 10 0 59217 29700.00000 0 5996346.309 -22962732.409 9467765.307 10 0 59217 30600.00000 0 5813098.437 -21632090.950 12297244.265 10 0 59217 31500.00000 0 5739796.788 -19959117.502 14889105.692 10 0 59217 32400.00000 0 5819762.073 -17986335.311 17193304.546 10 0 59217 33300.00000 0 6087777.651 -15765866.645 19165333.156 10 0 59217 34200.00000 0 6568435.729 -13357427.577 20767065.985 10 0 59217 35100.00000 0 7274918.061 -10826023.649 21967485.329 10 0 59217 36000.00000 0 8208262.264 -8239439.972 22743275.248 10 0 59217 36900.00000 0 9357145.212 -5665627.623 23079273.064 10 0 59217 37800.00000 0 10698194.076 -3170092.332 22968770.042 10 0 59217 38700.00000 0 12196814.174 -813391.501 22413655.133 10 0 59217 39600.00000 0 13808501.717 1351158.341 21424398.056 10 0 59217 40500.00000 0 15480589.549 3279469.755 20019870.579 10 0 59217 41400.00000 0 17154355.894 4938286.304 18227007.421 10 0 59217 42300.00000 0 18767410.485 6306331.347 16080311.125 10 0 59217 43200.00000 0 20256260.322 7374955.266 13621208.082 10 0 59217 44100.00000 0 21558948.737 8148253.032 10897265.892 10 0 59217 45000.00000 0 22617657.364 8642645.926 7961285.384 10 0 59217 45900.00000 0 23381161.054 8885943.823 4870283.496 10 0 59217 46800.00000 0 23807030.970 8915926.587 1684385.993 10 0 59217 47700.00000 0 23863490.844 8778503.988 -1534348.344 10 0 59217 48600.00000 0 23530845.587 8525532.093 -4723148.529 10 0 59217 49500.00000 0 22802419.207 8212379.495 -7819772.039 10 0 59217 50400.00000 0 21684959.944 7895347.978 -10763739.267 10 0 59217 51300.00000 0 20198493.427 7629059.098 -13497535.530 10 0 59217 52200.00000 0 18375628.558 7463919.937 -15967755.022 10 0 59217 53100.00000 0 16260344.712 7443777.980 -18126162.171 10 0 59217 54000.00000 0 13906311.298 7603866.932 -19930647.987 10 0 59217 54900.00000 0 11374810.970 7969132.455 -21346061.397 10 0 59217 55800.00000 0 8732354.829 8553010.143 -22344898.562 10 0 59217 56700.00000 0 6048090.877 9356708.226 -22907836.542 10 0 59217 57600.00000 0 3391115.422 10369025.440 -23024101.292 10 0 59217 58500.00000 0 827800.865 11566711.289 -22691663.614 10 0 59217 59400.00000 0 -1580748.153 12915352.590 -21917260.493 10 0 59217 60300.00000 0 -3781004.371 14370747.730 -20716242.822 10 0 59217 61200.00000 0 -5728997.896 15880709.389 -19112254.143 10 0 59217 62100.00000 0 -7391885.769 17387218.651 -17136748.206 10 0 59217 63000.00000 0 -8749048.136 18828838.824 -14828356.317 10 0 59217 63900.00000 0 -9792668.125 20143286.823 -12232118.164 10 0 59217 64800.00000 0 -10527774.599 21270053.818 -9398592.270 10 0 59217 65700.00000 0 -10971749.389 22152965.278 -6382864.238 10 0 59217 66600.00000 0 -11153322.871 22742573.594 -3243472.775 10 0 59217 67500.00000 0 -11111102.909 22998283.898 -41274.616 10 0 59217 68400.00000 0 -10891701.232 22890125.259 3161729.672 10 0 59217 69300.00000 0 -10547537.536 22400094.423 6303586.531 10 0 59217 70200.00000 0 -10134414.479 21523017.274 9323574.589 10 0 59217 71100.00000 0 -9708965.663 20266893.111 12163362.325 10 0 59217 72000.00000 0 -9326083.334 18652708.179 14768117.106 10 0 59217 72900.00000 0 -9036432.941 16713726.540 17087545.760 10 0 59217 73800.00000 0 -8884157.716 14494287.422 19076848.362 10 0 59217 74700.00000 0 -8904868.354 12048158.207 20697568.402 10 0 59217 75600.00000 0 -9124001.100 9436509.861 21918324.600 10 0 59217 76500.00000 0 -9555612.536 6725596.743 22715411.518 10 0 59217 77400.00000 0 -10201661.573 3984234.646 23073258.187 10 0 59217 78300.00000 0 -11051809.547 1281178.992 22984736.301 10 0 59217 79200.00000 0 -12083748.287 -1317490.660 22451311.705 10 0 59217 80100.00000 0 -13264044.586 -3750873.479 21483035.374 10 0 59217 81000.00000 0 -14549468.333 -5965535.480 20098372.590 10 0 59217 81900.00000 0 -15888751.490 -7917488.933 18323871.635 10 0 59217 82800.00000 0 -17224706.925 -9573781.027 16193676.204 10 0 59217 83700.00000 0 -18496620.495 -10913625.297 13748888.551 10 0 59217 84600.00000 0 -19642817.668 -11929027.790 11036793.460 10 0 59217 85500.00000 0 -20603297.498 -12624880.481 8109956.141 99